Akron, OH

1:56 PM EDT on September 30, 2014 (GMT -0400)
Skycasters | Change Station
CLOSE
Current Station
Personal Weather Station
Location: Akron, OH
Elevation: 1135 ft
Nearby Weather Stations

Elev 1135 ft 41.03 °N, 81.49 °W | Updated 9 seconds ago

Overcast
Overcast
64.4 °F
Feels Like 64.4 °F
N
0.0
Wind Variable Wind from North
Gusts 0.0 mph

Today
High -- | Low -- °F
--% Chance of Precip.
Yesterday
High -- | Low -- °F
Precip. -- in
7:21 AM 7:09 PM
Waxing Crescent, 38% visible
Pressure 29.91 in
Visibility 10.0 miles
Clouds Few 1400 ft
Mostly Cloudy 1900 ft
Overcast 4800 ft
Dew Point 60 °F
Humidity 85%
Rainfall 0.26 in
Snow Depth Not available.
UV 2 out of 12
Pollen 1.80 out of 12
Ozone Good
PM2.5 Good
Flu Activity Not available.
METAR KAKR 301654Z AUTO 35005KT 10SM FEW014 BKN019 OVC048 18/14 A2991 RMK AO2 SLP126 T01830144

More Conditions Fewer Conditions

Pressure 29.91 in
Visibility 10.0 miles
Clouds Few 1400 ft
Mostly Cloudy 1900 ft
Overcast 4800 ft
Dew Point 60 °F
Humidity 85%
Rainfall 0.26 in
Snow Depth Not available.
UV 2 out of 12
Pollen 1.80 out of 12
Ozone Good
PM2.5 Good
Flu Activity Not available.
METAR KAKR 301654Z AUTO 35005KT 10SM FEW014 BKN019 OVC048 18/14 A2991 RMK AO2 SLP126 T01830144

More Conditions Fewer Conditions

10-Day Weather Forecast

Almanac

Astronomy

Sep. 30, 2014 Rise Set
Actual Time 7:21 AM EDT 7:09 PM EDT
Civil Twilight 6:54 AM EDT 7:37 PM EDT
Nautical Twilight 6:22 AM EDT 8:08 PM EDT
Astronomical Twilight 5:50 AM EDT 8:41 PM EDT
Moon 1:30 PM EDT 11:36 PM EDT
Length of Visible Light 12h 42m
Length of Day
11h 48m
Tomorrow will be 2m 41s shorter.
Waxing Crescent, 38% of the Moon is Illuminated
Today
Waxing Crescent
Oct 1
First Quarter
Oct 8
Full
Oct 15
Last Quarter
Oct 23
New

Today's Extremes

State Highs State Lows

Community

WunderPhotos

Upload Photos

1,757,693 photos uploaded!

Nearby

Air Quality

  Air Quality AQ Index Pollutant
Yesterday Moderate
PM2.5
Yesterday Good
OZONE
Current Good
OZONE
Current Good
PM2.5
Tuesday Moderate
PM2.5
Tuesday Good
OZONE
Wednesday Moderate
PM2.5
Wednesday Good
OZONE
Thursday Moderate
PM2.5
Thursday Good
OZONE

Snow Depth

Station Depth Elevation
No new snow has been reported.

Earthquake Activity

City Distance Mag. Time & Date
No recent earthquake activity has been reported nearby.
Minimum magnitude displayed is 2.5.

Coastal Water Temperatures

Place Temperature
No Stations Reporting

Nearby Weather Stations